Погода в Тит-Арах

Россия / Республика Саха (Якутия)     61°13′28″N   127°43′46″E
темп.,
°C
ветер,
м/с
пор.,
м/с
влажн.,
%
обл.,
%
осадки,
мм/ч
давл.,
гПа
погр.,
м
27 февраля, сб
сб2700:00−28в3598100 0.0 1030120
03:00−30в359987 0.0 102894
06:00−29в3696100 0.0 1028155
09:00−28в3795100 0.0 1026243
12:00−24в3692100 0.0 1024320
15:00−21в4794100 0.0 1020407
18:00−22всв4896100 0.1 1020402
21:00−22всв2598100 0.6 1019330
28 февраля, вс
вс2800:00−23ссв2499100 0.8 1018223
03:00−24сз2499100 1.6 1018258
06:00−24зсз4997100 0.8 1019640
09:00−25зсз5995100 1.4 1020754
12:00−26зсз5993100 0.4 1023719
15:00−25зсз51092100 0.8 1023855
18:00−25зсз41094100 0.3 1026943
21:00−25зсз4994100 0.5 1027979
1 марта, пн
пн100:00−26з4994100 0.2 1027823
03:00−27з4995100 0.3 1028707
06:00−27з4994100 0.1 1028678
09:00−27з4992100 0.3 1028694
12:00−25зсз5889100 0.1 1028848
15:00−25з4888100 0.2 1028861
18:00−26з3793100 0.1 1028683
21:00−27з2796100 0.1 1028501
2 марта, вт
вт200:00−28з2698100 0.1 1028194
03:00−30з239897 0.1 102878
06:00−31зюз239896 0.0 102877
09:00−31зюз249787 0.1 1028148
12:00−26з238481 0.0 1026524
15:00−25зсз127991 0.0 1025729
18:00−30ссв009196 0.0 102519
21:00−33всв119571 0.0 102619
3 марта, ср
ср300:00−35всв119948 0.0 102619
03:00−36в1110061 0.0 102619
06:00−36всв1110062 0.0 102619
09:00−34св009765 0.0 102528
12:00−27с118692 0.0 1022343
15:00−26ссз238296 0.0 1021639
18:00−30сз2394100 0.0 102135
21:00−31зсз259899 0.0 1021140